Location: Invercargill
(46.4000°S, 168.3500°E)
Time: 10:55:59
(UTC+12:00)

Cosmos 1939 Rocket - Pass Details

Date: 14 May 2021
Orbit: 530 x 585 km, 97.4° (Epoch: 15 June)

Event Time Altitude Azimuth Distance (km) Brightness Sun altitude
Exits shadow 19:23:31 33° 156° (SSE) 1,010 3.9 -20.3°
Maximum altitude 19:25:19 73° 79° (E) 626 2.8 -20.6°
Drops below altitude 10° 19:29:30 10° 353° (N) 1,918 5.7 -21.3°
Sets 19:31:39 0° 351° (N) 2,811 6.6 -21.7°
